Chillicothe, MO

10:28 AM CDT on August 27, 2016 (GMT -0500)
Chillicothe

Weather History for KCDJ - October, 2012

Change the Weather History Date:

Saturday, October 6, 2012

  Actual Average (KIRK) Record (KIRK)
Temperature  
Mean Temperature 40 °F 56 °F  
Max Temperature 48 °F 68 °F 91 °F (1963)
Min Temperature 32 °F 45 °F 24 °F (1935)
Degree Days  
Heating Degree Days 25 9  
Month to date heating degree days 51  
Since 1 July heating degree days 158  
Cooling Degree Days 0 1  
Month to date cooling degree days 6  
Year to date cooling degree days 933  
Moisture  
Dew Point 29 °F    
Average Humidity 64    
Maximum Humidity 92    
Minimum Humidity 46    
Precipitation  
Precipitation 0.00 in 0.09 in 1.87 in (1951)
Month to date precipitation 0.67  
Year to date precipitation 32.19  
Sea Level Pressure  
Sea Level Pressure 30.33 in    
Wind  
Wind Speed 2 mph (NNW)    
Max Wind Speed 9 mph    
Max Gust Speed 16 mph    
T = Trace of Precipitation, MM = Missing Value Source: NWS Daily Summary

Daily Weather History Graph

Daily Weather History Graph

Search for Another Location

Airport or City:

Trip Planner

Search our weather history database for the weather conditions in past years. The results will help you decide how hot, cold, wet, or windy it might be!

Date:

Astronomy

Oct. 06, 2012 Rise Set
Actual Time 7:15 AM CDT 6:47 PM CDT
Civil Twilight 6:48 AM CDT 7:14 PM CDT
Nautical Twilight 6:17 AM CDT 7:46 PM CDT
Astronomical Twilight 5:46 AM CDT 8:17 PM CDT
Moon 11:04 PM CDT (10/6) 1:10 PM CDT (10/6)
Length of Visible Light 12h 25m
Length of Day
11h 31m
Waning Gibbous, 65% of the Moon is Illuminated
Oct 6
Waning Gibbous
Oct 8
Last Quarter
Oct 15
New
Oct 21
First Quarter
Oct 29
Full

Hourly Weather History & Observations

Time (CDT) Temp. Windchill Dew Point Humidity Pressure Visibility Wind Dir Wind Speed Gust Speed Precip Events Conditions
12:52 AM 36.0 °F - 30.9 °F 82% 30.30 in - Calm Calm - N/A   Unknown
1:52 AM 32.0 °F - 28.9 °F 88% 30.31 in - Calm Calm - N/A   Unknown
2:52 AM 32.0 °F - 30.0 °F 92% 30.32 in - Calm Calm - N/A   Unknown
3:52 AM 33.1 °F - 30.0 °F 89% 30.33 in - Calm Calm - N/A   Unknown
4:52 AM 35.1 °F - 30.9 °F 85% 30.32 in - Calm Calm - N/A   Unknown
5:52 AM 34.0 °F - 30.0 °F 85% 30.32 in - Calm Calm - N/A   Unknown
6:52 AM 35.1 °F - 28.0 °F 76% 30.33 in - Calm Calm - N/A   Unknown
7:52 AM 36.0 °F 33.3 °F 27.0 °F 70% 30.35 in - NNW 3.5 mph - N/A   Unknown
8:52 AM 37.9 °F 35.5 °F 27.0 °F 65% 30.35 in - North 3.5 mph - N/A   Unknown
9:52 AM 42.1 °F 40.2 °F 28.0 °F 58% 30.38 in - Variable 3.5 mph - N/A   Unknown
10:52 AM 44.1 °F 40.1 °F 27.0 °F 51% 30.37 in - North 6.9 mph - N/A   Unknown
11:52 AM 43.0 °F 38.8 °F 27.0 °F 53% 30.39 in - North 6.9 mph - N/A   Unknown
12:52 PM 44.1 °F 40.1 °F 26.1 °F 49% 30.38 in - Variable 6.9 mph - N/A   Unknown
1:52 PM 45.0 °F 40.1 °F 27.0 °F 49% 30.35 in - NW 9.2 mph 16.1 mph N/A   Unknown
2:52 PM 45.0 °F 41.2 °F 28.0 °F 52% 30.33 in - NNW 6.9 mph - N/A   Unknown
3:52 PM 46.0 °F 43.1 °F 27.0 °F 47% 30.32 in - Variable 5.8 mph - N/A   Unknown
4:52 PM 46.9 °F - 28.0 °F 48% 30.30 in - Variable 4.6 mph - N/A   Unknown
5:52 PM 48.0 °F - 28.0 °F 46% 30.29 in - NW 5.8 mph - N/A   Unknown
6:52 PM 45.0 °F - 28.9 °F 53% 30.30 in - Calm Calm - N/A   Unknown
7:52 PM 43.0 °F - 30.0 °F 60% 30.32 in - Calm Calm - N/A   Unknown
8:52 PM 43.0 °F - 30.9 °F 62% 30.33 in - Calm Calm - N/A   Unknown
9:52 PM 43.0 °F 39.5 °F 28.9 °F 58% 30.34 in - North 5.8 mph - N/A   Unknown
10:52 PM 42.1 °F - 28.9 °F 60% 30.35 in - Calm Calm - N/A   Unknown
11:52 PM 39.9 °F - 30.9 °F 70% 30.34 in - Calm Calm - N/A   Unknown